| time (UTC) | temp F | wind direction | speed MPH | gust MPH | rain 1hr in | rain 24hr in | rain mn in | humidity % | barometer mb |
| 20260504225740 | 69 | 280 | 9.0 | 19.0 | 0.00 | 0.00 | 0.00 | 40 | 994.6 |
| 20260504225239 | 69 | 286 | 12.0 | 20.0 | 0.00 | 0.00 | 0.00 | 40 | 994.6 |
| 20260504225008 | 70 | 323 | 13.0 | 21.0 | 0.00 | 0.00 | 0.00 | 40 | 994.6 |
| 20260504224237 | 70 | 291 | 12.0 | 21.0 | 0.00 | 0.00 | 0.00 | 39 | 994.6 |
| 20260504223737 | 71 | 295 | 13.0 | 25.0 | 0.00 | 0.00 | 0.00 | 41 | 994.5 |
| 20260504223230 | 71 | 298 | 14.0 | 25.0 | 0.00 | 0.00 | 0.00 | 39 | 994.3 |
| 20260504222731 | 72 | 328 | 12.0 | 22.0 | 0.00 | 0.00 | 0.00 | 40 | 994.3 |
| 20260504222231 | 73 | 319 | 10.0 | 21.0 | 0.00 | 0.00 | 0.00 | 39 | 994.3 |
| 20260504221731 | 73 | 290 | 11.0 | 20.0 | 0.00 | 0.00 | 0.00 | 38 | 994.2 |
| 20260504221231 | 73 | 277 | 11.0 | 21.0 | 0.00 | 0.00 | 0.00 | 38 | 994.1 |
| 20260504220731 | 73 | 290 | 11.0 | 22.0 | 0.00 | 0.00 | 0.00 | 38 | 994.0 |
| 20260504220231 | 73 | 292 | 11.0 | 22.0 | 0.00 | 0.00 | 0.00 | 39 | 994.0 |
| 20260504215728 | 74 | 284 | 11.0 | 22.0 | 0.00 | 0.00 | 0.00 | 39 | 993.9 |
| 20260504215230 | 74 | 262 | 10.0 | 21.0 | 0.00 | 0.00 | 0.00 | 39 | 993.9 |
| 20260504214727 | 74 | 290 | 10.0 | 20.0 | 0.00 | 0.00 | 0.00 | 39 | 993.6 |
| 20260504214226 | 74 | 280 | 10.0 | 24.0 | 0.00 | 0.00 | 0.00 | 38 | 993.5 |
| 20260504213957 | 75 | 311 | 11.0 | 25.0 | 0.00 | 0.00 | 0.00 | 38 | 993.5 |
| 20260504213224 | 75 | 261 | 12.0 | 25.0 | 0.00 | 0.00 | 0.00 | 38 | 993.5 |
| 20260504212726 | 76 | 294 | 13.0 | 24.0 | 0.00 | 0.00 | 0.00 | 37 | 993.4 |
| 20260504212220 | 76 | 265 | 13.0 | 24.0 | 0.00 | 0.00 | 0.00 | 36 | 993.2 |
| 20260504211948 | 76 | 271 | 12.0 | 25.0 | 0.00 | 0.00 | 0.00 | 37 | 993.2 |
| 20260504211220 | 76 | 235 | 11.0 | 25.0 | 0.00 | 0.00 | 0.00 | 36 | 993.2 |
| 20260504210718 | 76 | 278 | 11.0 | 20.0 | 0.00 | 0.00 | 0.00 | 37 | 993.1 |
| 20260504210218 | 77 | 254 | 10.0 | 21.0 | 0.00 | 0.00 | 0.00 | 37 | 993.2 |
| 20260504205720 | 77 | 271 | 10.0 | 23.0 | 0.00 | 0.00 | 0.00 | 38 | 993.1 |
| 20260504205213 | 78 | 317 | 8.0 | 23.0 | 0.00 | 0.00 | 0.00 | 39 | 993.1 |
| 20260504204713 | 78 | 255 | 7.0 | 19.0 | 0.00 | 0.00 | 0.00 | 39 | 993.0 |
| 20260504204212 | 77 | 290 | 8.0 | 19.0 | 0.00 | 0.00 | 0.00 | 39 | 993.0 |
| 20260504203943 | 77 | 287 | 7.0 | 18.0 | 0.00 | 0.00 | 0.00 | 40 | 993.0 |
| 20260504203212 | 77 | 236 | 9.0 | 18.0 | 0.00 | 0.00 | 0.00 | 38 | 992.9 |
| 20260504202712 | 77 | 278 | 9.0 | 17.0 | 0.00 | 0.00 | 0.00 | 39 | 993.1 |
| 20260504202212 | 77 | 240 | 8.0 | 24.0 | 0.00 | 0.00 | 0.00 | 40 | 993.1 |
| 20260504201942 | 76 | 313 | 7.0 | 17.0 | 0.00 | 0.00 | 0.00 | 41 | 993.1 |
| 20260504201822 | 76 | 242 | 8.0 | 17.0 | 0.00 | 0.00 | 0.00 | 40 | 993.2 |
| 20260504200706 | 76 | 244 | 9.0 | 18.0 | 0.00 | 0.00 | 0.00 | 39 | 993.3 |
| 20260504200207 | 77 | 232 | 8.0 | 18.0 | 0.00 | 0.00 | 0.00 | 38 | 993.3 |
| 20260504195706 | 77 | 295 | 8.0 | 23.0 | 0.00 | 0.00 | 0.00 | 39 | 993.3 |
| 20260504195202 | 77 | 291 | 8.0 | 23.0 | 0.00 | 0.00 | 0.00 | 39 | 993.3 |
| 20260504194702 | 76 | 284 | 7.0 | 18.0 | 0.00 | 0.00 | 0.00 | 40 | 993.3 |
| 20260504194203 | 76 | 271 | 6.0 | 15.0 | 0.00 | 0.00 | 0.00 | 41 | 993.4 |
| 20260504193934 | 75 | 268 | 7.0 | 15.0 | 0.00 | 0.00 | 0.00 | 41 | 993.4 |
| 20260504193200 | 75 | 243 | 7.0 | 15.0 | 0.00 | 0.00 | 0.00 | 41 | 993.4 |
| 20260504192701 | 75 | 273 | 7.0 | 15.0 | 0.00 | 0.00 | 0.00 | 40 | 993.5 |
| 20260504192155 | 75 | 246 | 7.0 | 15.0 | 0.00 | 0.00 | 0.00 | 40 | 993.4 |
| 20260504191926 | 75 | 248 | 8.0 | 20.0 | 0.00 | 0.00 | 0.00 | 41 | 993.4 |
| 20260504191425 | 75 | 233 | 8.0 | 20.0 | 0.00 | 0.00 | 0.00 | 39 | 993.4 |
| 20260504190925 | 76 | 285 | 8.0 | 21.0 | 0.00 | 0.00 | 0.00 | 39 | 993.4 |
| 20260504190159 | 76 | 242 | 9.0 | 21.0 | 0.00 | 0.00 | 0.00 | 39 | 993.3 |
| 20260504190154 | 76 | 251 | 8.0 | 21.0 | 0.00 | 0.00 | 0.00 | 40 | 993.4 |
| 20260504185149 | 75 | 268 | 9.0 | 21.0 | 0.00 | 0.00 | 0.00 | 40 | 993.3 |
| 20260504184649 | 76 | 248 | 8.0 | 16.0 | 0.00 | 0.00 | 0.00 | 39 | 993.4 |
| 20260504184148 | 76 | 253 | 9.0 | 20.0 | 0.00 | 0.00 | 0.00 | 38 | 993.3 |
| 20260504183648 | 76 | 275 | 9.0 | 20.0 | 0.00 | 0.00 | 0.00 | 38 | 993.3 |
| 20260504183422 | 76 | 227 | 10.0 | 19.0 | 0.00 | 0.00 | 0.00 | 39 | 993.3 |
| 20260504182649 | 77 | 239 | 10.0 | 21.0 | 0.00 | 0.00 | 0.00 | 38 | 993.3 |
| 20260504182142 | 77 | 290 | 9.0 | 21.0 | 0.00 | 0.00 | 0.00 | 38 | 993.3 |
| 20260504181643 | 76 | 253 | 10.0 | 21.0 | 0.00 | 0.00 | 0.00 | 37 | 993.3 |
| 20260504181142 | 76 | 235 | 10.0 | 21.0 | 0.00 | 0.00 | 0.00 | 39 | 993.5 |
| 20260504180642 | 76 | 301 | 9.0 | 20.0 | 0.00 | 0.00 | 0.00 | 37 | 993.2 |
| 20260504180142 | 76 | 249 | 9.0 | 19.0 | 0.00 | 0.00 | 0.00 | 38 | 993.5 |
| 20260504175643 | 76 | 277 | 10.0 | 20.0 | 0.00 | 0.00 | 0.00 | 38 | 993.4 |
| 20260504175140 | 76 | 198 | 11.0 | 23.0 | 0.00 | 0.00 | 0.00 | 38 | 993.4 |
| 20260504174637 | 75 | 241 | 11.0 | 23.0 | 0.00 | 0.00 | 0.00 | 38 | 993.6 |
| 20260504174143 | 75 | 253 | 10.0 | 21.0 | 0.00 | 0.00 | 0.00 | 37 | 993.6 |
| 20260504174137 | 75 | 260 | 10.0 | 22.0 | 0.00 | 0.00 | 0.00 | 38 | 993.7 |
| 20260504173136 | 75 | 232 | 11.0 | 22.0 | 0.00 | 0.00 | 0.00 | 37 | 993.6 |
| 20260504172635 | 75 | 308 | 10.0 | 31.0 | 0.00 | 0.00 | 0.00 | 39 | 993.9 |
| 20260504172136 | 75 | 255 | 10.0 | 31.0 | 0.00 | 0.00 | 0.00 | 39 | 994.0 |
| 20260504171636 | 75 | 238 | 8.0 | 33.0 | 0.00 | 0.00 | 0.00 | 39 | 994.2 |
| 20260504171407 | 74 | 214 | 7.0 | 33.0 | 0.00 | 0.00 | 0.00 | 40 | 994.0 |
| 20260504170636 | 74 | 269 | 9.0 | 22.0 | 0.00 | 0.00 | 0.00 | 42 | 994.1 |
| 20260504170137 | 73 | 199 | 10.0 | 22.0 | 0.00 | 0.00 | 0.00 | 42 | 994.0 |
| 20260504160124 | 70 | 239 | 11.0 | 32.0 | 0.00 | 0.00 | 0.00 | 46 | 994.7 |
| 20260504151120 | 68 | 196 | 9.0 | 19.0 | 0.00 | 0.00 | 0.00 | 48 | 995.5 |
| 20260504150621 | 67 | 215 | 9.0 | 22.0 | 0.00 | 0.00 | 0.00 | 48 | 995.6 |
| 20260504150119 | 67 | 215 | 9.0 | 22.0 | 0.00 | 0.00 | 0.00 | 48 | 995.6 |
| 20260504141111 | 64 | 180 | 9.0 | 21.0 | 0.00 | 0.00 | 0.00 | 51 | 996.3 |
| 20260504140613 | 64 | 214 | 10.0 | 24.0 | 0.00 | 0.00 | 0.00 | 53 | 996.4 |
| 20260504140112 | 63 | 234 | 9.0 | 24.0 | 0.00 | 0.00 | 0.00 | 52 | 996.4 |
| 20260504130605 | 60 | 207 | 8.0 | 17.0 | 0.00 | 0.00 | 0.00 | 59 | 997.6 |
| 20260504130104 | 60 | 231 | 8.0 | 18.0 | 0.00 | 0.00 | 0.00 | 59 | 997.6 |
| 20260504110545 | 45 | 181 | 1.0 | 5.0 | 0.00 | 0.00 | 0.00 | 84 | 998.6 |
| 20260504100529 | 47 | 184 | 3.0 | 5.0 | 0.00 | 0.00 | 0.00 | 79 | 999.5 |
| 20260504082005 | 50 | 185 | 3.0 | 5.0 | 0.00 | 0.00 | 0.00 | 70 | 1000.6 |
| 20260504081507 | 50 | 189 | 3.0 | 5.0 | 0.00 | 0.00 | 0.00 | 69 | 1000.7 |
| 20260504081006 | 50 | 194 | 3.0 | 5.0 | 0.00 | 0.00 | 0.00 | 69 | 1000.7 |
| 20260504080503 | 50 | 192 | 3.0 | 6.0 | 0.00 | 0.00 | 0.00 | 69 | 1000.7 |
| 20260504050419 | 57 | 49 | 3.0 | 8.0 | 0.00 | 0.00 | 0.00 | 57 | 1002.4 |
| 20260504045922 | 58 | 44 | 2.0 | 8.0 | 0.00 | 0.00 | 0.00 | 56 | 1002.4 |
| 20260504045415 | 59 | 277 | 2.0 | 4.0 | 0.00 | 0.00 | 0.00 | 53 | 1002.2 |
| 20260504044915 | 59 | 225 | 2.0 | 3.0 | 0.00 | 0.00 | 0.00 | 53 | 1002.2 |
| 20260504044416 | 60 | 238 | 2.0 | 3.0 | 0.00 | 0.00 | 0.00 | 52 | 1002.1 |
| 20260504043919 | 60 | 246 | 2.0 | 4.0 | 0.00 | 0.00 | 0.00 | 52 | 1002.0 |
| 20260504043915 | 60 | 248 | 2.0 | 4.0 | 0.00 | 0.00 | 0.00 | 52 | 1002.1 |
| 20260504043146 | 60 | 224 | 2.0 | 4.0 | 0.00 | 0.00 | 0.00 | 51 | 1001.9 |
| 20260504042416 | 60 | 234 | 2.0 | 4.0 | 0.00 | 0.00 | 0.00 | 51 | 1001.9 |
| 20260504041912 | 60 | 226 | 2.0 | 4.0 | 0.00 | 0.00 | 0.00 | 51 | 1001.9 |
| 20260504041411 | 61 | 238 | 2.0 | 4.0 | 0.00 | 0.00 | 0.00 | 50 | 1001.9 |
| 20260504040910 | 61 | 215 | 2.0 | 4.0 | 0.00 | 0.00 | 0.00 | 50 | 1002.0 |
| 20260504040411 | 61 | 243 | 2.0 | 4.0 | 0.00 | 0.00 | 0.00 | 50 | 1002.0 |
| 20260504035911 | 62 | 246 | 2.0 | 6.0 | 0.00 | 0.00 | 0.00 | 50 | 1002.0 |
| 20260504035412 | 62 | 257 | 2.0 | 6.0 | 0.00 | 0.00 | 0.00 | 49 | 1002.0 |
| 20260504034912 | 62 | 256 | 2.0 | 8.0 | 0.00 | 0.00 | 0.00 | 48 | 1002.1 |
| 20260504034639 | 62 | 267 | 3.0 | 8.0 | 0.00 | 0.00 | 0.00 | 48 | 1002.0 |
| 20260504033908 | 62 | 266 | 3.0 | 8.0 | 0.00 | 0.00 | 0.00 | 48 | 1002.1 |
| 20260504033408 | 62 | 288 | 3.0 | 8.0 | 0.00 | 0.00 | 0.00 | 48 | 1002.1 |
| 20260504032906 | 63 | 271 | 3.0 | 9.0 | 0.00 | 0.00 | 0.00 | 48 | 1002.2 |
| 20260504032408 | 63 | 276 | 3.0 | 9.0 | 0.00 | 0.00 | 0.00 | 48 | 1002.2 |
| 20260504031902 | 63 | 291 | 3.0 | 9.0 | 0.00 | 0.00 | 0.00 | 48 | 1002.1 |
| 20260504031354 | 62 | 253 | 3.0 | 9.0 | 0.00 | 0.00 | 0.00 | 49 | 1002.2 |
| 20260504031120 | 62 | 285 | 3.0 | 12.0 | 0.00 | 0.00 | 0.00 | 49 | 1002.2 |
| 20260504030623 | 63 | 249 | 2.0 | 6.0 | 0.00 | 0.00 | 0.00 | 49 | 1002.1 |
| 20260504025850 | 63 | 212 | 3.0 | 6.0 | 0.00 | 0.00 | 0.00 | 50 | 1002.2 |
| 20260504025404 | 63 | 243 | 3.0 | 10.0 | 0.00 | 0.00 | 0.00 | 48 | 1002.1 |
| 20260504025349 | 63 | 239 | 3.0 | 7.0 | 0.00 | 0.00 | 0.00 | 50 | 1002.2 |
| 20260504024350 | 64 | 274 | 3.0 | 10.0 | 0.00 | 0.00 | 0.00 | 47 | 1002.1 |
| 20260504023845 | 64 | 274 | 3.0 | 7.0 | 0.00 | 0.00 | 0.00 | 48 | 1002.1 |
| 20260504023345 | 64 | 295 | 2.0 | 8.0 | 0.00 | 0.00 | 0.00 | 48 | 1002.1 |
| 20260504022846 | 64 | 266 | 2.0 | 8.0 | 0.00 | 0.00 | 0.00 | 48 | 1002.1 |
| 20260504022344 | 64 | 293 | 2.0 | 6.0 | 0.00 | 0.00 | 0.00 | 48 | 1002.1 |
| 20260504022116 | 64 | 271 | 3.0 | 6.0 | 0.00 | 0.00 | 0.00 | 47 | 1002.1 |
| 20260504021618 | 64 | 262 | 3.0 | 7.0 | 0.00 | 0.00 | 0.00 | 47 | 1002.0 |
| 20260504021113 | 64 | 275 | 3.0 | 8.0 | 0.00 | 0.00 | 0.00 | 47 | 1002.0 |
| 20260504020617 | 64 | 265 | 3.0 | 8.0 | 0.00 | 0.00 | 0.00 | 47 | 1002.0 |
| 20260504015840 | 64 | 262 | 2.0 | 6.0 | 0.00 | 0.00 | 0.00 | 47 | 1002.0 |
| 20260504015340 | 65 | 275 | 2.0 | 6.0 | 0.00 | 0.00 | 0.00 | 46 | 1001.9 |
| 20260504014841 | 65 | 267 | 2.0 | 7.0 | 0.00 | 0.00 | 0.00 | 46 | 1001.8 |
| 20260504014341 | 65 | 242 | 2.0 | 7.0 | 0.00 | 0.00 | 0.00 | 46 | 1001.8 |
| 20260504014112 | 65 | 267 | 2.0 | 7.0 | 0.00 | 0.00 | 0.00 | 46 | 1001.7 |
| 20260504013342 | 65 | 333 | 3.0 | 7.0 | 0.00 | 0.00 | 0.00 | 46 | 1001.7 |
| 20260504013108 | 66 | 291 | 2.0 | 7.0 | 0.00 | 0.00 | 0.00 | 45 | 1001.8 |
| 20260504012337 | 66 | 318 | 3.0 | 7.0 | 0.00 | 0.00 | 0.00 | 45 | 1001.7 |
| 20260504011837 | 66 | 296 | 3.0 | 7.0 | 0.00 | 0.00 | 0.00 | 44 | 1001.7 |
| 20260504011338 | 66 | 293 | 3.0 | 9.0 | 0.00 | 0.00 | 0.00 | 44 | 1001.7 |
| 20260504010837 | 67 | 287 | 3.0 | 9.0 | 0.00 | 0.00 | 0.00 | 44 | 1001.6 |
| 20260504010609 | 67 | 294 | 3.0 | 9.0 | 0.00 | 0.00 | 0.00 | 44 | 1001.5 |
| 20260504005834 | 67 | 287 | 3.0 | 8.0 | 0.00 | 0.00 | 0.00 | 44 | 1001.5 |
| 20260504005607 | 67 | 284 | 3.0 | 7.0 | 0.00 | 0.00 | 0.00 | 44 | 1001.5 |
| 20260504004837 | 67 | 290 | 3.0 | 7.0 | 0.00 | 0.00 | 0.00 | 43 | 1001.5 |
| 20260504004559 | 68 | 275 | 3.0 | 9.0 | 0.00 | 0.00 | 0.00 | 43 | 1001.4 |
| 20260504003832 | 68 | 302 | 4.0 | 10.0 | 0.00 | 0.00 | 0.00 | 43 | 1001.4 |
| 20260504003331 | 69 | 306 | 5.0 | 10.0 | 0.00 | 0.00 | 0.00 | 42 | 1001.4 |
| 20260504002825 | 69 | 271 | 5.0 | 12.0 | 0.00 | 0.00 | 0.00 | 41 | 1001.3 |
| 20260504002325 | 69 | 294 | 5.0 | 12.0 | 0.00 | 0.00 | 0.00 | 41 | 1001.3 |
| 20260504001817 | 69 | 246 | 4.0 | 10.0 | 0.00 | 0.00 | 0.00 | 41 | 1001.3 |
| 20260504001316 | 69 | 304 | 4.0 | 11.0 | 0.00 | 0.00 | 0.00 | 41 | 1001.2 |
| 20260504000815 | 69 | 279 | 4.0 | 11.0 | 0.00 | 0.00 | 0.00 | 43 | 1001.2 |
| 20260504000315 | 68 | 263 | 3.0 | 10.0 | 0.00 | 0.00 | 0.00 | 46 | 1001.2 |
| 20260503235815 | 67 | 277 | 3.0 | 8.0 | 0.00 | 0.00 | 0.00 | 50 | 1001.2 |
| 20260503235316 | 67 | 196 | 4.0 | 8.0 | 0.00 | 0.00 | 0.00 | 51 | 1001.1 |
| 20260503235042 | 67 | 209 | 3.0 | 8.0 | 0.00 | 0.00 | 0.00 | 51 | 1001.1 |
| 20260503234310 | 67 | 222 | 4.0 | 15.0 | 0.00 | 0.00 | 0.00 | 52 | 1001.2 |
| 20260503234039 | 67 | 227 | 7.0 | 15.0 | 0.00 | 0.00 | 0.00 | 52 | 1001.1 |
| 20260503233810 | 67 | 227 | 7.0 | 15.0 | 0.00 | 0.00 | 0.00 | 52 | 1001.1 |
| 20260503233308 | 67 | 181 | 9.0 | 15.0 | 0.00 | 0.00 | 0.00 | 52 | 1001.1 |
| 20260503232807 | 67 | 184 | 9.0 | 16.0 | 0.00 | 0.00 | 0.00 | 51 | 1001.1 |
| 20260503232309 | 67 | 190 | 7.0 | 16.0 | 0.00 | 0.00 | 0.00 | 51 | 1001.1 |
| 20260503231804 | 68 | 200 | 8.0 | 19.0 | 0.00 | 0.00 | 0.00 | 50 | 1001.1 |
| 20260503231303 | 68 | 205 | 8.0 | 20.0 | 0.00 | 0.00 | 0.00 | 50 | 1000.9 |
| 20260503231259 | 68 | 242 | 9.0 | 20.0 | 0.00 | 0.00 | 0.00 | 49 | 1001.1 |
| 20260503230300 | 68 | 206 | 7.0 | 18.0 | 0.00 | 0.00 | 0.00 | 50 | 1001.1 |